Weather History for Pope Field Airport, NC

Change the Weather History Date:

Wednesday, May 14, 2014

  Actual Average Record
Temperature  
Mean Temperature 78 °F -  
Max Temperature 88 °F 81 °F 92 °F (1982)
Min Temperature 68 °F 58 °F 42 °F (2013)
Cooling Degree Days 13    
Growing Degree Days 28 (Base 50)    
Moisture  
Dew Point 65 °F    
Average Humidity 66    
Maximum Humidity 93    
Minimum Humidity 41    
Precipitation  
Precipitation 0.00 in - - ()
Sea Level Pressure  
Sea Level Pressure 30.14 in    
Wind  
Wind Speed 8 mph (SSW)    
Max Wind Speed 13 mph    
Max Gust Speed 18 mph    
Visibility 10 miles    
Events      
Averages and records for this station are not official NWS values.
T = Trace of Precipitation, MM = Missing Value Source: NWS Daily Summary

Daily Weather History Graph

Daily Weather History Graph

Search for Another Location

Airport:

Trip Planner

Search our weather history database for the weather conditions in past years. The results will help you decide how hot, cold, wet, or windy it might be!

Date:

Astronomy

May. 14, 2014 Rise Set
Actual Time 6:12 AM EDT 8:12 PM EDT
Civil Twilight 5:44 AM EDT 8:40 PM EDT
Nautical Twilight 5:10 AM EDT 9:14 PM EDT
Astronomical Twilight 4:34 AM EDT 9:51 PM EDT
Moon 8:16 PM EDT (5/14) 6:08 AM EDT (5/14)
Length of Visible Light 14h 55m
Length of Day
13h 59m
Full, 100% of the Moon is Illuminated
May 14
Full
May 14
Full
May 21
Last Quarter
May 28
New
Jun 5
First Quarter

Hourly Weather History & Observations

Time (EDT) Temp. Heat Index Dew Point Humidity Pressure Visibility Wind Dir Wind Speed Gust Speed Precip Events Conditions
12:58 AM 75.4 °F - 65.3 °F 71% 30.16 in 10.0 mi SW 8.1 mph - N/A   Clear
1:58 AM 73.8 °F - 65.8 °F 76% 30.16 in 10.0 mi SW 6.9 mph - N/A   Clear
2:58 AM 71.8 °F - 66.2 °F 83% 30.14 in 10.0 mi WSW 8.1 mph - N/A   Clear
3:58 AM 70.7 °F - 66.7 °F 87% 30.14 in 10.0 mi WSW 5.8 mph - N/A   Clear
4:58 AM 69.6 °F - 66.9 °F 91% 30.16 in 10.0 mi WSW 5.8 mph - N/A   Clear
5:58 AM 68.9 °F - 66.9 °F 93% 30.16 in 10.0 mi West 5.8 mph - N/A   Clear
6:58 AM 69.3 °F - 67.3 °F 93% 30.18 in 10.0 mi WSW 4.6 mph - N/A   Clear
7:58 AM 72.0 °F - 68.0 °F 87% 30.19 in 10.0 mi WSW 6.9 mph - N/A   Clear
8:58 AM 76.1 °F - 68.0 °F 76% 30.19 in 10.0 mi West 11.5 mph - N/A   Partly Cloudy
9:58 AM 79.0 °F - 67.6 °F 68% 30.19 in 10.0 mi Variable 4.6 mph - N/A   Clear
10:58 AM 80.8 °F 83.2 °F 67.1 °F 63% 30.17 in 10.0 mi Variable 6.9 mph - N/A   Clear
11:58 AM 82.9 °F 85.6 °F 67.3 °F 59% 30.17 in 10.0 mi SW 5.8 mph - N/A   Scattered Clouds
12:58 PM 83.8 °F 86.0 °F 66.0 °F 55% 30.17 in 10.0 mi SW 10.4 mph - N/A   Mostly Cloudy
1:58 PM 85.3 °F 86.4 °F 63.3 °F 48% 30.14 in 10.0 mi SSE 10.4 mph - N/A   Clear
2:58 PM 88.2 °F 89.0 °F 63.3 °F 43% 30.12 in 10.0 mi South 12.7 mph 18.4 mph N/A   Partly Cloudy
3:58 PM 87.4 °F 87.7 °F 62.1 °F 42% 30.09 in 10.0 mi SSE 9.2 mph 17.3 mph N/A   Clear
4:58 PM 86.7 °F 86.5 °F 60.1 °F 41% 30.08 in 10.0 mi SSE 12.7 mph 17.3 mph N/A   Clear
5:58 PM 86.4 °F 86.5 °F 61.3 °F 43% 30.06 in 10.0 mi South 10.4 mph 17.3 mph 0.00 in   Partly Cloudy
6:58 PM 84.2 °F 84.0 °F 59.7 °F 43% 30.08 in 10.0 mi SSW 11.5 mph 18.4 mph N/A   Clear
7:58 PM 81.3 °F 82.1 °F 61.0 °F 50% 30.09 in 10.0 mi South 6.9 mph - N/A   Clear
8:58 PM 78.8 °F - 62.6 °F 57% 30.13 in 10.0 mi Variable 5.8 mph - N/A   Clear
9:58 PM 76.3 °F - 63.7 °F 65% 30.14 in 10.0 mi South 9.2 mph 17.3 mph N/A   Clear
10:23 PM 75.2 °F - 64.4 °F 69% 30.14 in 4.0 mi South 10.4 mph - N/A   Haze
10:28 PM 75.2 °F - 64.4 °F 69% 30.14 in 5.0 mi South 8.1 mph - N/A   Haze
10:58 PM 74.5 °F - 64.8 °F 72% 30.14 in 10.0 mi South 8.1 mph - N/A   Clear
11:58 PM 73.2 °F - 65.1 °F 76% 30.14 in 10.0 mi South 9.2 mph - N/A   Clear